OE3PDB-10 Weather Reports


time (UTC)temp
C
wind
direction
speed
KPH
gust
KPH
rain 1hr
cm
rain 24hr
cm
rain mn
cm
humidity
%
barometer
mb
20260505203043 15 270 0.0 0.0 0.00 0.00 0.00 60 1111.0
20260505202043 15 247 0.0 0.0 0.00 0.00 0.00 59 1111.0
20260505201044 15 247 0.0 0.0 0.00 0.00 0.00 59 1111.0
20260505200044 15 270 0.0 0.0 0.00 0.00 0.00 58 1111.0
20260505195044 16 247 0.0 0.0 0.00 0.00 0.00 57 1111.0
20260505194044 16 270 0.0 0.0 0.00 0.00 0.00 55 1111.0
20260505193044 16 270 0.0 0.0 0.00 0.00 0.00 55 1111.0
20260505192044 16 247 0.0 0.0 0.00 0.00 0.00 54 1111.0
20260505191044 17 247 0.0 0.0 0.00 0.00 0.00 53 1111.0
20260505190044 17 247 0.0 0.0 0.00 0.00 0.00 52 1111.0
20260505185044 17 247 0.0 0.0 0.00 0.00 0.00 51 1111.0
20260505184044 17 270 0.0 0.0 0.00 0.00 0.00 50 1111.0
20260505183044 18 270 0.0 0.0 0.00 0.00 0.00 49 1111.0
20260505182044 18 270 0.0 0.0 0.00 0.00 0.00 48 1111.0
20260505181044 18 247 0.0 0.0 0.00 0.00 0.00 47 1111.0
20260505180044 19 270 0.0 0.0 0.00 0.00 0.00 46 1111.0
20260505175044 20 247 0.0 0.0 0.00 0.00 0.00 46 1111.0
20260505174044 20 247 0.0 0.0 0.00 0.00 0.00 45 1111.0
20260505173044 20 270 0.0 0.0 0.00 0.00 0.00 44 1111.0
20260505172044 21 270 0.0 0.0 0.00 0.00 0.00 44 1111.0
20260505171044 21 270 0.0 0.0 0.00 0.00 0.00 43 1111.0
20260505170044 21 270 0.0 0.0 0.00 0.00 0.00 42 1111.0
20260505165044 21 270 0.0 0.0 0.00 0.00 0.00 42 1111.0
20260505164044 21 270 0.0 0.0 0.00 0.00 0.00 42 1111.0
20260505163044 22 270 0.0 0.0 0.00 0.00 0.00 41 1111.0
20260505162044 22 270 0.0 0.0 0.00 0.00 0.00 40 1111.0
20260505161044 22 270 0.0 0.0 0.00 0.00 0.00 39 1111.0
20260505153044 23 225 0.0 0.0 0.00 0.00 0.00 35 1111.0
20260505152044 24 202 0.0 0.0 0.00 0.00 0.00 34 1111.0
20260505151044 25 270 0.0 0.0 0.00 0.00 0.00 33 1111.0
20260505124044 26 270 0.0 0.0 0.00 0.00 0.00 28 1111.0
20260505123044 26 247 0.0 0.0 0.00 0.00 0.00 28 1111.0
20260505122044 26 247 0.0 0.0 0.00 0.00 0.00 29 1111.0
20260505121044 25 270 0.0 0.0 0.00 0.00 0.00 31 1111.0
20260505120044 25 270 0.0 0.0 0.00 0.00 0.00 32 1111.0
20260505115044 24 247 0.0 0.0 0.00 0.00 0.00 35 1111.0
20260505114044 23 270 0.0 0.0 0.00 0.00 0.00 37 1111.0
20260505113044 23 270 0.0 0.0 0.00 0.00 0.00 41 1111.0
20260505112044 22 247 0.0 0.0 0.00 0.00 0.00 41 1111.0
20260505111044 22 270 0.0 0.0 0.00 0.00 0.00 43 1111.0
20260505101045 21 270 0.0 0.0 0.00 0.00 0.00 44 1111.0
20260505100045 21 247 0.0 0.0 0.00 0.00 0.00 44 1111.0
20260505095045 21 270 0.0 0.0 0.00 0.00 0.00 44 1111.0
20260505094045 21 247 0.0 0.0 0.00 0.00 0.00 44 1111.0
20260505093045 21 270 0.0 0.0 0.00 0.00 0.00 43 1111.0
20260505092045 21 270 0.0 0.0 0.00 0.00 0.00 42 1111.0
20260505091045 22 247 0.0 0.0 0.00 0.00 0.00 42 1111.0
20260505090045 22 247 0.0 0.0 0.00 0.00 0.00 42 1111.0
20260505085045 22 270 0.0 0.0 0.00 0.00 0.00 42 1111.0
20260505084045 22 270 0.0 0.0 0.00 0.00 0.00 42 1111.0
20260505083045 22 270 0.0 0.0 0.00 0.00 0.00 41 1111.0
20260505082045 23 247 0.0 0.0 0.00 0.00 0.00 41 1111.0
20260505081045 23 247 0.0 0.0 0.00 0.00 0.00 43 1111.0
20260505080045 22 270 0.0 0.0 0.00 0.00 0.00 42 1111.0
20260505075045 22 247 0.0 0.0 0.00 0.00 0.00 42 1111.0
20260505074045 22 225 0.0 0.0 0.00 0.00 0.00 42 1111.0
20260505073045 22 247 0.0 0.0 0.00 0.00 0.00 45 1111.0
20260505072045 22 247 0.0 0.0 0.00 0.00 0.00 46 1111.0
20260505071045 21 247 0.0 0.0 0.00 0.00 0.00 51 1111.0
20260505070045 19 247 0.0 0.0 0.00 0.00 0.00 57 1111.0
20260505065045 15 270 0.0 0.0 0.00 0.00 0.00 64 1111.0
20260505064045 15 270 0.0 0.0 0.00 0.00 0.00 63 1111.0
20260505063045 15 270 0.0 0.0 0.00 0.00 0.00 64 1111.0
20260505062045 14 270 0.0 0.0 0.00 0.00 0.00 64 1111.0
20260505061045 14 270 0.0 0.0 0.00 0.00 0.00 63 1111.0
20260505060045 15 247 0.0 0.0 0.00 0.00 0.00 63 1111.0
20260505055045 14 247 0.0 0.0 0.00 0.00 0.00 64 1111.0
20260505054045 13 247 0.0 0.0 0.00 0.00 0.00 64 1111.0
20260505053045 13 247 0.0 0.0 0.00 0.00 0.00 64 1111.0
20260505052045 13 247 0.0 0.0 0.00 0.00 0.00 65 1111.0
20260505051045 12 247 0.0 0.0 0.00 0.00 0.00 67 1111.0
20260505041045 10 247 0.0 0.0 0.00 0.00 0.00 70 1111.0
20260505040045 10 247 0.0 0.0 0.00 0.00 0.00 69 1111.0
20260505035045 10 247 0.0 0.0 0.00 0.00 0.00 69 1111.0
20260505034045 10 247 0.0 0.0 0.00 0.00 0.00 68 1111.0
20260505033045 10 247 0.0 0.0 0.00 0.00 0.00 67 1111.0
20260505032045 11 247 0.0 0.0 0.00 0.00 0.00 67 1111.0
20260505031045 11 247 0.0 0.0 0.00 0.00 0.00 67 1111.0
20260505030045 11 247 0.0 0.0 0.00 0.00 0.00 67 1111.0
20260505025045 11 247 0.0 0.0 0.00 0.00 0.00 67 1111.0
20260505024045 11 247 0.0 0.0 0.00 0.00 0.00 67 1111.0
20260505023045 11 247 0.0 0.0 0.00 0.00 0.00 66 1111.0
20260505022045 11 247 0.0 0.0 0.00 0.00 0.00 66 1111.0
20260505021045 12 247 0.0 0.0 0.00 0.00 0.00 64 1111.0
20260505020045 12 247 0.0 0.0 0.00 0.00 0.00 63 1111.0
20260505015045 12 247 0.0 0.0 0.00 0.00 0.00 63 1111.0
20260505014045 12 247 0.0 0.0 0.00 0.00 0.00 62 1111.0
20260505013046 12 247 0.0 0.0 0.00 0.00 0.00 61 1111.0
20260505012046 12 247 0.0 0.0 0.00 0.00 0.00 61 1111.0
20260505011046 13 247 0.0 0.0 0.00 0.00 0.00 61 1111.0
20260505010046 13 247 0.0 0.0 0.00 0.00 0.00 62 1111.0
20260505005046 13 247 0.0 0.0 0.00 0.00 0.00 62 1111.0
20260505004046 13 270 0.0 0.0 0.00 0.00 0.00 61 1111.0
20260505003046 13 247 0.0 0.0 0.00 0.00 0.00 61 1111.0
20260505002046 13 270 0.0 0.0 0.00 0.00 0.00 60 1111.0
20260505001046 13 247 0.0 0.0 0.00 0.00 0.00 59 1111.0
20260504235044 13 247 0.0 0.0 0.00 0.00 0.00 58 1111.0
20260504234044 14 270 0.0 0.0 0.00 0.00 0.00 58 1111.0
20260504233044 14 270 0.0 0.0 0.00 0.00 0.00 57 1111.0
20260504232045 15 270 0.0 0.0 0.00 0.00 0.00 57 1111.0
20260504231045 15 247 0.0 0.0 0.00 0.00 0.00 56 1111.0
20260504230045 15 270 0.0 0.0 0.00 0.00 0.00 56 1111.0
20260504225045 15 247 0.0 0.0 0.00 0.00 0.00 55 1111.0
20260504224045 15 270 0.0 0.0 0.00 0.00 0.00 54 1111.0
20260504223045 15 247 0.0 0.0 0.00 0.00 0.00 54 1111.0
20260504222045 15 270 0.0 0.0 0.00 0.00 0.00 53 1111.0
20260504221045 15 225 0.0 0.0 0.00 0.00 0.00 53 1111.0
20260504220045 16 247 0.0 0.0 0.00 0.00 0.00 52 1111.0
20260504215045 16 270 0.0 0.0 0.00 0.00 0.00 51 1111.0
20260504214045 16 270 0.0 0.0 0.00 0.00 0.00 50 1111.0
20260504213045 16 270 0.0 0.0 0.00 0.00 0.00 50 1111.0
20260504212045 16 270 0.0 0.0 0.00 0.00 0.00 50 1111.0
20260504211045 17 270 0.0 0.0 0.00 0.00 0.00 48 1111.0
20260504210045 17 270 0.0 0.0 0.00 0.00 0.00 48 1111.0
20260504205045 17 247 0.0 0.0 0.00 0.00 0.00 47 1111.0
20260504204045 17 247 0.0 0.0 0.00 0.00 0.00 46 1111.0